KB6CYS Weather Reports


Display with metric or nautical units.
time (UTC)temp
F
wind
direction
speed
MPH
gust
MPH
rain 1hr
in
rain 24hr
in
rain mn
in
humidity
%
barometer
mb
20260901171503 72 249 4.0 7.0 0.00 0.00 0.00 1014.9
20260901171002 72 309 2.0 5.0 0.00 0.00 0.00 1015.3
20260901170523 72 328 3.0 6.0 0.00 0.00 0.00 1014.9
20260901170003 71 323 2.0 8.0 0.00 0.00 0.00 1015.3
20260901165502 71 271 4.0 8.0 0.00 0.00 0.00 1014.9
20260901165001 71 310 3.0 6.0 0.00 0.00 0.00 1014.9
20260901164502 71 20 2.0 6.0 0.00 0.00 0.00 1014.6
20260901164002 71 9 2.0 6.0 0.00 0.00 0.00 1014.6
20260901163502 70 29 2.0 7.0 0.00 0.00 0.00 1014.9
20260901163003 70 284 3.0 8.0 0.00 0.00 0.00 1014.9
20260901162502 70 307 5.0 8.0 0.00 0.00 0.00 1014.6
20260901162023 70 100 1.0 5.0 0.00 0.00 0.00 1014.6
20260901161503 69 340 3.0 5.0 0.00 0.00 0.00 1014.6
20260901161003 69 14 2.0 6.0 0.00 0.00 0.00 1014.9
20260901160502 69 306 3.0 6.0 0.00 0.00 0.00 1014.9
20260901160002 69 16 1.0 5.0 0.00 0.00 0.00 1014.6
20260901155502 69 333 3.0 5.0 0.00 0.00 0.00 1014.9
20260901155002 68 318 3.0 5.0 0.00 0.00 0.00 1014.6
20260901154502 69 268 2.0 10.0 0.00 0.00 0.00 1014.6
20260901154002 69 270 4.0 10.0 0.00 0.00 0.00 1014.6
20260901153525 68 242 2.0 5.0 0.00 0.00 0.00 1014.9
20260901153002 68 45 2.0 5.0 0.00 0.00 0.00 1014.9
20260901152524 68 305 1.0 5.0 0.00 0.00 0.00 1014.9
20260901152001 68 64 2.0 4.0 0.00 0.00 0.00 1014.9
20260901151502 68 20 1.0 4.0 0.00 0.00 0.00 1014.9
20260901151003 68 144 1.0 3.0 0.00 0.00 0.00 1014.3
20260901150502 67 245 1.0 3.0 0.00 0.00 0.00 1014.3
20260901150004 68 316 1.0 3.0 0.00 0.00 0.00 1014.6
20260901145525 67 200 1.0 2.0 0.00 0.00 0.00 1014.9
20260901145002 67 184 1.0 2.0 0.00 0.00 0.00 1014.3
20260901144524 66 9 0.0 4.0 0.00 0.00 0.00 1014.3
20260901144002 66 266 3.0 5.0 0.00 0.00 0.00 1014.3
20260901143503 66 243 3.0 5.0 0.00 0.00 0.00 1014.3
20260901143002 66 276 2.0 4.0 0.00 0.00 0.00 1014.3
20260901142524 66 317 2.0 5.0 0.00 0.00 0.00 1014.3
20260901142001 66 289 1.0 5.0 0.00 0.00 0.00 1014.3
20260901141523 66 285 2.0 3.0 0.00 0.00 0.00 1014.6
20260901141003 66 265 1.0 6.0 0.00 0.00 0.00 1014.9
20260901140503 66 14 3.0 6.0 0.00 0.00 0.00 1014.3
20260901140002 66 26 2.0 3.0 0.00 0.00 0.00 1014.3
20260901135523 66 354 1.0 4.0 0.00 0.00 0.00 1013.9
20260901135003 66 157 2.0 6.0 0.00 0.00 0.00 1013.9
20260901134502 66 287 3.0 6.0 0.00 0.00 0.00 1013.9
20260901134002 66 318 2.0 4.0 0.00 0.00 0.00 1013.9
20260901133502 66 330 2.0 4.0 0.00 0.00 0.00 1013.6
20260901133002 66 315 1.0 2.0 0.00 0.00 0.00 1013.9
20260901132502 66 158 0.0 2.0 0.00 0.00 0.00 1014.3
20260901132002 66 71 1.0 2.0 0.00 0.00 0.00 1014.3
20260901131502 66 45 1.0 2.0 0.00 0.00 0.00 1013.9
20260901131023 66 207 1.0 2.0 0.00 0.00 0.00 1014.3
20260901130502 66 269 0.0 2.0 0.00 0.00 0.00 1014.6
20260901130003 66 265 0.0 4.0 0.00 0.00 0.00 1013.9
20260901125504 66 318 2.0 4.0 0.00 0.00 0.00 1013.9
20260901125002 66 324 2.0 3.0 0.00 0.00 0.00 1013.9
20260901124502 66 28 1.0 3.0 0.00 0.00 0.00 1014.3
20260901124002 66 4 1.0 3.0 0.00 0.00 0.00 1013.9
20260901123523 66 16 2.0 5.0 0.00 0.00 0.00 1013.9
20260901123003 66 338 2.0 5.0 0.00 0.00 0.00 1013.9
20260901122503 66 273 0.0 5.0 0.00 0.00 0.00 1013.6
20260901122002 66 303 3.0 5.0 0.00 0.00 0.00 1013.6
20260901121503 66 336 2.0 4.0 0.00 0.00 0.00 1014.3
20260901121002 66 283 2.0 4.0 0.00 0.00 0.00 1013.6
20260901120502 66 35 1.0 5.0 0.00 0.00 0.00 1013.6
20260901120023 66 79 3.0 5.0 0.00 0.00 0.00 1013.2
20260901115524 66 41 2.0 4.0 0.00 0.00 0.00 1013.6
20260901115003 66 352 1.0 3.0 0.00 0.00 0.00 1013.2
20260901114502 66 305 2.0 4.0 0.00 0.00 0.00 1013.6
20260901114002 66 328 2.0 4.0 0.00 0.00 0.00 1013.9
20260901113502 66 355 1.0 3.0 0.00 0.00 0.00 1013.9
20260901113024 66 345 2.0 4.0 0.00 0.00 0.00 1013.9
20260901112502 66 344 1.0 4.0 0.00 0.00 0.00 1013.9
20260901112002 66 347 2.0 4.0 0.00 0.00 0.00 1013.9
20260901111502 66 356 2.0 4.0 0.00 0.00 0.00 1013.9
20260901111025 66 337 2.0 4.0 0.00 0.00 0.00 1013.9
20260901110524 66 351 1.0 3.0 0.00 0.00 0.00 1013.9
20260901110004 66 302 1.0 3.0 0.00 0.00 0.00 1013.9
20260901105502 66 331 1.0 3.0 0.00 0.00 0.00 1013.9
20260901105002 66 357 1.0 3.0 0.00 0.00 0.00 1014.3
20260901104502 65 328 1.0 2.0 0.00 0.00 0.00 1013.9
20260901104002 65 325 2.0 2.0 0.00 0.00 0.00 1014.3
20260901103502 65 347 1.0 2.0 0.00 0.00 0.00 1014.3
20260901103024 65 332 1.0 2.0 0.00 0.00 0.00 1013.9
20260901102503 65 297 1.0 2.0 0.00 0.00 0.00 1013.6
20260901102003 65 283 0.0 2.0 0.00 0.00 0.00 1013.6
20260901101502 65 285 1.0 2.0 0.00 0.00 0.00 1013.9
20260901101002 65 293 0.0 3.0 0.00 0.00 0.00 1013.9
20260901100502 65 297 1.0 3.0 0.00 0.00 0.00 1013.6
20260901100003 65 327 1.0 3.0 0.00 0.00 0.00 1013.9
20260901095503 65 318 1.0 2.0 0.00 0.00 0.00 1013.9
20260901095002 65 265 1.0 3.0 0.00 0.00 0.00 1013.9
20260901094501 65 285 2.0 3.0 0.00 0.00 0.00 1013.6
20260901094003 65 286 1.0 3.0 0.00 0.00 0.00 1013.9
20260901093524 66 288 2.0 3.0 0.00 0.00 0.00 1013.6
20260901093002 66 291 1.0 3.0 0.00 0.00 0.00 1013.6
20260901092503 66 282 2.0 4.0 0.00 0.00 0.00 1013.9
20260901092002 66 277 2.0 4.0 0.00 0.00 0.00 1013.6
20260901091503 66 294 2.0 3.0 0.00 0.00 0.00 1013.9
20260901091002 66 283 2.0 3.0 0.00 0.00 0.00 1013.6
20260901090502 66 286 2.0 2.0 0.00 0.00 0.00 1013.9
20260901090024 66 276 2.0 3.0 0.00 0.00 0.00 1013.6
20260901085501 66 303 2.0 3.0 0.00 0.00 0.00 1013.9
20260901085003 66 278 2.0 3.0 0.00 0.00 0.00 1013.9
20260901084503 66 301 2.0 3.0 0.00 0.00 0.00 1013.9
20260901084002 66 303 2.0 3.0 0.00 0.00 0.00 1013.6
20260901083503 66 295 1.0 3.0 0.00 0.00 0.00 1013.9
20260901083003 66 280 2.0 4.0 0.00 0.00 0.00 1013.6
20260901082502 66 293 2.0 4.0 0.00 0.00 0.00 1013.6
20260901082003 67 285 3.0 4.0 0.00 0.00 0.00 1013.6
20260901081502 67 285 2.0 3.0 0.00 0.00 0.00 1014.3
20260901081002 67 278 1.0 3.0 0.00 0.00 0.00 1014.3
20260901080503 67 293 1.0 3.0 0.00 0.00 0.00 1013.9
20260901080024 67 274 2.0 3.0 0.00 0.00 0.00 1013.6
20260901075502 67 284 2.0 3.0 0.00 0.00 0.00 1013.6
20260901075002 67 286 2.0 2.0 0.00 0.00 0.00 1013.6
20260901074523 67 310 1.0 3.0 0.00 0.00 0.00 1013.9
20260901074003 67 301 1.0 3.0 0.00 0.00 0.00 1013.9
20260901073524 67 297 1.0 3.0 0.00 0.00 0.00 1013.9
20260901073004 67 291 2.0 3.0 0.00 0.00 0.00 1013.9
20260901072524 67 295 1.0 3.0 0.00 0.00 0.00 1013.9
20260901072003 67 303 2.0 4.0 0.00 0.00 0.00 1014.3
20260901071502 67 299 3.0 4.0 0.00 0.00 0.00 1013.2
20260901071002 67 294 2.0 3.0 0.00 0.00 0.00 1013.6
20260901070502 68 294 1.0 2.0 0.00 0.00 0.00 1013.9
20260901070002 68 281 1.0 3.0 0.00 0.00 0.00 1013.6
20260901065503 68 256 2.0 3.0 0.00 0.00 0.00 1013.6
20260901065003 68 270 2.0 3.0 0.00 0.00 0.00 1013.6
20260901064503 68 227 2.0 3.0 0.00 0.00 0.00 1013.6
20260901064002 68 253 2.0 3.0 0.00 0.00 0.00 1013.6
20260901063503 68 249 1.0 3.0 0.00 0.00 0.00 1013.9
20260901063003 68 256 1.0 3.0 0.00 0.00 0.00 1013.9
20260901062503 68 274 2.0 3.0 0.00 0.00 0.00 1013.9
20260901062024 68 276 1.0 3.0 0.00 0.00 0.00 1013.9
20260901061502 68 279 2.0 3.0 0.00 0.00 0.00 1013.9
20260901061003 68 281 2.0 3.0 0.00 0.00 0.00 1013.9
20260901060502 68 273 2.0 5.0 0.00 0.00 0.00 1014.3
20260901060003 68 290 2.0 5.0 0.00 0.00 0.00 1014.3
20260901055524 68 290 4.0 5.0 0.00 0.00 0.00 1013.9
20260901055004 68 284 2.0 5.0 0.00 0.00 0.00 1013.9
20260901054502 68 275 2.0 5.0 0.00 0.00 0.00 1013.2
20260901054002 68 298 2.0 3.0 0.00 0.00 0.00 1013.6
20260901053503 68 274 2.0 5.0 0.00 0.00 0.00 1013.2
20260901053003 68 287 2.0 5.0 0.00 0.00 0.00 1013.6
20260901052503 68 298 2.0 5.0 0.00 0.00 0.00 1013.9
20260901052002 68 286 3.0 5.0 0.00 0.00 0.00 1013.6
20260901051502 68 237 3.0 5.0 0.00 0.00 0.00 1013.6
20260901051003 68 250 3.0 5.0 0.00 0.00 0.00 1013.6
20260901050502 69 245 3.0 5.0 0.00 0.00 0.00 1013.9
20260901050003 69 247 3.0 5.0 0.00 0.00 0.00 1013.6
20260901045524 69 240 3.0 5.0 0.00 0.00 0.00 1013.6
20260901045002 69 238 2.0 5.0 0.00 0.00 0.00 1013.6
20260901044525 69 223 3.0 5.0 0.00 0.00 0.00 1013.6
20260901044023 69 240 4.0 5.0 0.00 0.00 0.00 1013.6
20260901043502 69 253 3.0 6.0 0.00 0.00 0.00 1013.6
20260901043004 69 240 4.0 7.0 0.00 0.00 0.00 1013.2
20260901042503 69 244 4.0 7.0 0.00 0.00 0.00 1013.6
20260901042003 69 255 4.0 6.0 0.00 0.00 0.00 1013.2
20260901041502 69 243 4.0 7.0 0.00 0.00 0.00 1013.2
20260901041024 70 247 4.0 7.0 0.00 0.00 0.00 1013.2
20260901040523 70 274 4.0 6.0 0.00 0.00 0.00 1013.2
20260901040003 70 248 4.0 5.0 0.00 0.00 0.00 1012.9
20260901035502 70 283 3.0 7.0 0.00 0.00 0.00 1012.9
20260901035003 70 265 3.0 7.0 0.00 0.00 0.00 1012.9
20260901034502 70 245 4.0 7.0 0.00 0.00 0.00 1012.6
20260901034002 70 280 4.0 7.0 0.00 0.00 0.00 1012.6
20260901033524 70 277 5.0 7.0 0.00 0.00 0.00 1012.2
20260901033003 70 292 3.0 8.0 0.00 0.00 0.00 1012.2
20260901032502 70 264 4.0 8.0 0.00 0.00 0.00 1012.2
20260901032003 71 260 5.0 8.0 0.00 0.00 0.00 1011.5
20260901031524 71 281 3.0 9.0 0.00 0.00 0.00 1012.2
20260901031003 71 273 4.0 9.0 0.00 0.00 0.00 1012.6
20260901030503 71 284 3.0 10.0 0.00 0.00 0.00 1012.6
20260901030003 71 286 6.0 10.0 0.00 0.00 0.00 1011.9
20260901025503 71 297 5.0 9.0 0.00 0.00 0.00 1011.9
20260901025002 72 281 4.0 8.0 0.00 0.00 0.00 1012.2
20260901024503 72 289 4.0 9.0 0.00 0.00 0.00 1012.6
20260901024003 72 283 5.0 10.0 0.00 0.00 0.00 1011.9
20260901023502 73 285 5.0 12.0 0.00 0.00 0.00 1012.2
20260901023024 72 280 7.0 12.0 0.00 0.00 0.00 1011.5
20260901022503 73 301 5.0 10.0 0.00 0.00 0.00 1010.9
20260901022004 73 282 5.0 11.0 0.00 0.00 0.00 1011.2
20260901021503 74 287 6.0 11.0 0.00 0.00 0.00 1011.2
20260901021025 74 279 5.0 11.0 0.00 0.00 0.00 1011.2
20260901020524 74 278 5.0 11.0 0.00 0.00 0.00 1011.2
20260901020003 75 285 7.0 11.0 0.00 0.00 0.00 1010.9
20260901015524 76 277 6.0 13.0 0.00 0.00 0.00 1010.9
20260901015003 76 275 7.0 13.0 0.00 0.00 0.00 1011.2
20260901014502 77 270 8.0 13.0 0.00 0.00 0.00 1010.9
20260901014003 78 273 5.0 13.0 0.00 0.00 0.00 1011.2
20260901013503 79 277 6.0 13.0 0.00 0.00 0.00 1011.5
20260901013002 79 273 6.0 12.0 0.00 0.00 0.00 1011.2
20260901012502 79 273 8.0 12.0 0.00 0.00 0.00 1011.5
20260901012003 80 292 7.0 11.0 0.00 0.00 0.00 1010.9
20260901011503 81 277 5.0 9.0 0.00 0.00 0.00 1010.9
20260901011002 82 222 4.0 7.0 0.00 0.00 0.00 1010.5
20260901010502 82 198 3.0 8.0 0.00 0.00 0.00 1010.5
20260901010003 81 194 4.0 9.0 0.00 0.00 0.00 1010.9
20260901005502 81 210 4.0 10.0 0.00 0.00 0.00 1011.5
20260901005003 81 212 6.0 10.0 0.00 0.00 0.00 1010.9
20260901004502 80 218 5.0 11.0 0.00 0.00 0.00 1010.5
20260901004003 80 206 5.0 12.0 0.00 0.00 0.00 1011.5
20260901003503 80 200 6.0 12.0 0.00 0.00 0.00 1011.5
20260901003003 80 211 7.0 12.0 0.00 0.00 0.00 1011.5
20260901002503 80 205 6.0 12.0 0.00 0.00 0.00 1011.2
20260901002003 80 195 6.0 14.0 0.00 0.00 0.00 1010.9
20260901001524 80 214 8.0 15.0 0.00 0.00 0.00 1011.2
20260901001024 80 225 7.0 15.0 0.00 0.00 0.00 1010.9
20260901000503 81 232 8.0 14.0 0.00 0.00 0.00 1011.2
20260901000003 81 192 5.0 17.0 0.00 0.00 0.00 1011.5
20260831235503 81 219 10.0 17.0 0.00 0.00 0.00 1011.9
20260831235003 81 223 10.0 15.0 0.00 0.00 0.00 1011.5
20260831234504 81 199 8.0 15.0 0.00 0.00 0.00 1010.9
20260831234003 81 203 7.0 14.0 0.00 0.00 0.00 1010.5
20260831233502 81 222 8.0 15.0 0.00 0.00 0.00 1010.9
20260831233003 81 216 7.0 15.0 0.00 0.00 0.00 1010.5
20260831232502 81 206 8.0 14.0 0.00 0.00 0.00 1010.9
20260831232024 82 206 8.0 13.0 0.00 0.00 0.00 1011.5
20260831231502 82 203 5.0 13.0 0.00 0.00 0.00 1011.5
20260831231003 82 202 7.0 13.0 0.00 0.00 0.00 1011.5
20260831230502 82 182 7.0 12.0 0.00 0.00 0.00 1011.2
20260831230003 82 210 6.0 14.0 0.00 0.00 0.00 1011.2
20260831225503 82 212 7.0 14.0 0.00 0.00 0.00 1011.9
20260831225024 82 213 7.0 15.0 0.00 0.00 0.00 1011.9
20260831224525 82 231 9.0 15.0 0.00 0.00 0.00 1012.2
20260831224002 82 218 7.0 13.0 0.00 0.00 0.00 1011.5
20260831223524 83 212 6.0 13.0 0.00 0.00 0.00 1011.9
20260831223004 83 216 5.0 12.0 0.00 0.00 0.00 1012.2
20260831222502 83 180 6.0 15.0 0.00 0.00 0.00 1012.2
20260831222002 83 191 6.0 15.0 0.00 0.00 0.00 1012.2
20260831221503 83 205 8.0 14.0 0.00 0.00 0.00 1012.6
20260831221002 83 211 6.0 13.0 0.00 0.00 0.00 1011.9
20260831220502 82 222 7.0 13.0 0.00 0.00 0.00 1012.6
20260831220003 83 217 7.0 13.0 0.00 0.00 0.00 1011.9
20260831215525 83 218 6.0 12.0 0.00 0.00 0.00 1011.9
20260831215004 83 189 6.0 13.0 0.00 0.00 0.00 1011.9
20260831214503 82 205 7.0 15.0 0.00 0.00 0.00 1011.9
20260831214003 82 224 7.0 15.0 0.00 0.00 0.00 1011.9
20260831213502 82 219 7.0 12.0 0.00 0.00 0.00 1013.2
20260831213025 82 222 7.0 12.0 0.00 0.00 0.00 1011.9
20260831212503 82 227 8.0 12.0 0.00 0.00 0.00 1012.2
20260831212002 82 206 6.0 12.0 0.00 0.00 0.00 1012.2
20260831211502 82 188 6.0 12.0 0.00 0.00 0.00 1012.9
20260831211024 82 217 6.0 12.0 0.00 0.00 0.00 1012.6
20260831210503 83 191 7.0 12.0 0.00 0.00 0.00 1012.9
20260831210003 82 191 7.0 11.0 0.00 0.00 0.00 1012.6
20260831205502 82 176 7.0 15.0 0.00 0.00 0.00 1011.9
20260831205003 82 215 5.0 15.0 0.00 0.00 0.00 1012.6
20260831204503 83 211 6.0 13.0 0.00 0.00 0.00 1012.9
20260831204003 81 190 5.0 15.0 0.00 0.00 0.00 1011.9
20260831203503 82 232 9.0 15.0 0.00 0.00 0.00 1012.6
20260831203024 82 216 6.0 12.0 0.00 0.00 0.00 1012.2
20260831202503 82 201 6.0 11.0 0.00 0.00 0.00 1012.2
20260831202023 81 230 6.0 13.0 0.00 0.00 0.00 1011.9
20260831201502 82 211 5.0 13.0 0.00 0.00 0.00 1012.6
20260831201002 82 216 7.0 13.0 0.00 0.00 0.00 1012.9
20260831200525 80 244 6.0 13.0 0.00 0.00 0.00 1012.6
20260831200002 82 230 5.0 12.0 0.00 0.00 0.00 1012.9
20260831195504 81 231 8.0 12.0 0.00 0.00 0.00 1012.9
20260831195002 81 187 5.0 14.0 0.00 0.00 0.00 1012.6
20260831194502 81 226 8.0 14.0 0.00 0.00 0.00 1012.2
20260831194004 81 204 7.0 14.0 0.00 0.00 0.00 1012.6
20260831193502 81 223 10.0 14.0 0.00 0.00 0.00 1012.6
20260831193002 82 211 7.0 14.0 0.00 0.00 0.00 1012.2
20260831192502 82 238 7.0 11.0 0.00 0.00 0.00 1012.2
20260831192002 82 235 4.0 10.0 0.00 0.00 0.00 1012.6
20260831191504 82 207 6.0 10.0 0.00 0.00 0.00 1012.6
20260831191002 82 184 4.0 12.0 0.00 0.00 0.00 1012.6
20260831190503 81 215 6.0 12.0 0.00 0.00 0.00 1012.6
20260831190003 80 230 5.0 10.0 0.00 0.00 0.00 1012.2
20260831185524 80 315 2.0 9.0 0.00 0.00 0.00 1012.2
20260831185002 80 236 4.0 9.0 0.00 0.00 0.00 1012.6
20260831184503 81 196 2.0 9.0 0.00 0.00 0.00 1012.6
20260831184004 80 223 4.0 9.0 0.00 0.00 0.00 1013.2
20260831183503 81 226 4.0 9.0 0.00 0.00 0.00 1012.9
20260831183002 81 181 6.0 10.0 0.00 0.00 0.00 1013.2
20260831182502 80 181 5.0 10.0 0.00 0.00 0.00 1012.6
20260831182003 79 218 3.0 9.0 0.00 0.00 0.00 1012.6
20260831181503 79 222 4.0 10.0 0.00 0.00 0.00 1012.6
20260831181003 78 198 5.0 10.0 0.00 0.00 0.00 1012.6
20260831180504 78 254 5.0 7.0 0.00 0.00 0.00 1012.9
20260831180026 78 287 2.0 6.0 0.00 0.00 0.00 1012.6
20260831175503 78 236 2.0 7.0 0.00 0.00 0.00 1012.6
20260831175003 78 258 5.0 7.0 0.00 0.00 0.00 1012.9
20260831174504 78 66 2.0 6.0 0.00 0.00 0.00 1012.6
20260831174025 78 23 2.0 7.0 0.00 0.00 0.00 1012.2
20260831173502 77 89 4.0 7.0 0.00 0.00 0.00 1012.6
20260831173003 77 272 1.0 3.0 0.00 0.00 0.00 1012.9
20260831172503 76 200 1.0 7.0 0.00 0.00 0.00 1012.9
20260831172002 76 264 2.0 7.0 0.00 0.00 0.00 1012.9